• In Kazakhstan
  • List of Countries
  • For 7 days
  • Water Temperature
  • Satellite Maps
  • Weather Map
  • News
  • Weather Widgets
  • user-avatar
    Login

    Hourly Weather Abomey

    Today, 22 October, Sunday

    Time Temperature Precipitation Wind Pressure Humidity
    00:00 +26°C° 0 mm 1 mps 740 mmHg 87%
    01:00 +26°C° 0 mm 1 mps 740 mmHg 89%
    02:00 +25°C° 0 mm 1 mps 740 mmHg 90%
    03:00 +25°C° 0 mm 1 mps 740 mmHg 92%
    04:00 +25°C° 0 mm 1 mps 740 mmHg 92%
    05:00 +25°C° 0 mm 1 mps 740 mmHg 93%
    06:00 +25°C° 0 mm 1 mps 740 mmHg 92%
    07:00 +27°C° 0 mm 2 mps 740 mmHg 83%
    08:00 +29°C° 0 mm 2 mps 740 mmHg 74%
    09:00 +31°C° 0 mm 2 mps 741 mmHg 65%
    10:00 +32°C° 0 mm 2 mps 740 mmHg 58%
    11:00 +35°C° 0 mm 2 mps 740 mmHg 51%
    12:00 +36°C° 0 mm 1 mps 740 mmHg 45%
    13:00 +36°C° 0 mm 1 mps 739 mmHg 45%
    14:00 +35°C° 0 mm 1 mps 738 mmHg 45%
    15:00 +35°C° 0 mm 1 mps 738 mmHg 46%
    16:00 +34°C° 0 mm 2 mps 738 mmHg 51%
    17:00 +32°C° 0 mm 2 mps 738 mmHg 57%
    18:00 +30°C° 0 mm 3 mps 738 mmHg 63%
    19:00 +29°C° 0 mm 3 mps 738 mmHg 68%
    20:00 +28°C° 0 mm 3 mps 739 mmHg 72%
    21:00 +27°C° 0 mm 3 mps 739 mmHg 77%
    22:00 +27°C° 0 mm 3 mps 739 mmHg 79%
    23:00 +27°C° 0 mm 3 mps 739 mmHg 81%

    Tomorrow, 23 October, Monday

    Time Temperature Precipitation Wind Pressure Humidity
    00:00 +26°C° 0 mm 3 mps 739 mmHg 83%
    01:00 +26°C° 0 mm 3 mps 739 mmHg 85%
    02:00 +26°C° 0 mm 2 mps 739 mmHg 87%
    03:00 +25°C° 0 mm 2 mps 738 mmHg 89%
    04:00 +25°C° 0 mm 2 mps 738 mmHg 90%
    05:00 +25°C° 0 mm 2 mps 739 mmHg 91%
    06:00 +25°C° 0 mm 1 mps 739 mmHg 92%
    07:00 +27°C° 0 mm 2 mps 739 mmHg 85%
    08:00 +28°C° 0 mm 2 mps 739 mmHg 77%
    09:00 +30°C° 0 mm 3 mps 740 mmHg 69%
    10:00 +31°C° 0 mm 3 mps 740 mmHg 66%
    11:00 +33°C° 0 mm 3 mps 739 mmHg 62%
    12:00 +34°C° 0 mm 3 mps 739 mmHg 59%
    13:00 +34°C° 0 mm 3 mps 738 mmHg 59%
    14:00 +34°C° 0 mm 3 mps 738 mmHg 59%
    15:00 +34°C° 0 mm 3 mps 737 mmHg 59%
    16:00 +31°C° 0.2 mm 3 mps 737 mmHg 65%
    17:00 +30°C° 0.2 mm 2 mps 737 mmHg 71%
    18:00 +28°C° 0.2 mm 2 mps 737 mmHg 77%
    19:00 +28°C° 0 mm 2 mps 738 mmHg 80%
    20:00 +27°C° 0 mm 2 mps 739 mmHg 82%
    21:00 +27°C° 0 mm 2 mps 739 mmHg 84%
    22:00 +26°C° 0 mm 2 mps 739 mmHg 86%
    23:00 +26°C° 0 mm 2 mps 739 mmHg 88%

    Day after tomorrow, 24 October, Tuesday

    Time Temperature Precipitation Wind Pressure Humidity
    00:00 +26°C° 0 mm 2 mps 739 mmHg 89%
    01:00 +25°C° 0 mm 2 mps 739 mmHg 90%
    02:00 +25°C° 0 mm 2 mps 738 mmHg 91%
    03:00 +25°C° 0 mm 2 mps 738 mmHg 93%
    04:00 +25°C° 0 mm 2 mps 738 mmHg 93%
    05:00 +25°C° 0 mm 2 mps 738 mmHg 94%
    06:00 +25°C° 0 mm 1 mps 738 mmHg 95%
    07:00 +27°C° 0 mm 2 mps 739 mmHg 86%
    08:00 +29°C° 0 mm 2 mps 739 mmHg 76%
    09:00 +31°C° 0 mm 2 mps 740 mmHg 67%
    10:00 +34°C° 0 mm 2 mps 739 mmHg 60%
    11:00 +36°C° 0 mm 2 mps 739 mmHg 52%
    12:00 +37°C° 0 mm 1 mps 738 mmHg 45%
    13:00 +36°C° 0 mm 1 mps 737 mmHg 45%
    14:00 +36°C° 0 mm 1 mps 737 mmHg 44%
    15:00 +36°C° 0 mm 1 mps 736 mmHg 43%
    16:00 +35°C° 0 mm 2 mps 736 mmHg 50%
    17:00 +33°C° 0 mm 3 mps 737 mmHg 57%
    18:00 +30°C° 0 mm 3 mps 737 mmHg 64%
    19:00 +29°C° 0.2 mm 3 mps 738 mmHg 70%
    20:00 +28°C° 0.2 mm 3 mps 738 mmHg 76%
    21:00 +27°C° 0.2 mm 3 mps 739 mmHg 82%
    22:00 +27°C° 0.1 mm 3 mps 739 mmHg 85%
    23:00 +26°C° 0.1 mm 3 mps 739 mmHg 87%

    25 October, Wednesday

    Time Temperature Precipitation Wind Pressure Humidity
    00:00 +26°C° 0.1 mm 3 mps 739 mmHg 89%
    01:00 +26°C° 0 mm 2 mps 739 mmHg 90%
    02:00 +26°C° 0 mm 2 mps 738 mmHg 91%
    03:00 +25°C° 0 mm 2 mps 738 mmHg 92%
    04:00 +25°C° 0 mm 2 mps 738 mmHg 93%
    05:00 +25°C° 0 mm 2 mps 738 mmHg 93%
    06:00 +25°C° 0 mm 2 mps 739 mmHg 94%
    07:00 +27°C° 0 mm 2 mps 739 mmHg 85%
    08:00 +29°C° 0 mm 2 mps 740 mmHg 76%
    09:00 +31°C° 0 mm 2 mps 740 mmHg 67%
    10:00 +32°C° 0 mm 2 mps 739 mmHg 62%
    11:00 +34°C° 0 mm 3 mps 739 mmHg 56%
    12:00 +36°C° 0 mm 3 mps 738 mmHg 51%
    13:00 +36°C° 0.1 mm 3 mps 738 mmHg 52%
    14:00 +35°C° 0.1 mm 3 mps 737 mmHg 52%
    15:00 +35°C° 0.1 mm 3 mps 737 mmHg 53%
    16:00 +34°C° 0.1 mm 3 mps 737 mmHg 59%
    17:00 +31°C° 0.1 mm 3 mps 737 mmHg 66%
    18:00 +29°C° 0.1 mm 3 mps 738 mmHg 73%
    19:00 +29°C° 0 mm 3 mps 738 mmHg 76%
    20:00 +28°C° 0 mm 3 mps 739 mmHg 80%
    21:00 +27°C° 0 mm 3 mps 740 mmHg 84%
    22:00 +27°C° 0 mm 3 mps 740 mmHg 85%
    23:00 +26°C° 0 mm 2 mps 740 mmHg 87%

    26 October, Thursday

    Time Temperature Precipitation Wind Pressure Humidity
    00:00 +26°C° 0 mm 2 mps 740 mmHg 88%
    01:00 +26°C° 0 mm 2 mps 739 mmHg 90%
    02:00 +26°C° 0 mm 2 mps 739 mmHg 91%
    03:00 +25°C° 0 mm 2 mps 738 mmHg 92%
    04:00 +25°C° 0 mm 2 mps 739 mmHg 93%
    05:00 +25°C° 0 mm 1 mps 739 mmHg 94%
    06:00 +25°C° 0 mm 1 mps 739 mmHg 95%
    07:00 +27°C° 0 mm 2 mps 740 mmHg 85%
    08:00 +29°C° 0 mm 2 mps 740 mmHg 74%
    09:00 +31°C° 0 mm 2 mps 740 mmHg 64%
    10:00 +32°C° 0 mm 2 mps 740 mmHg 59%
    11:00 +35°C° 0 mm 2 mps 739 mmHg 54%
    12:00 +36°C° 0 mm 2 mps 739 mmHg 50%
    13:00 +36°C° 0.1 mm 2 mps 738 mmHg 50%
    14:00 +35°C° 0.1 mm 2 mps 737 mmHg 51%
    15:00 +35°C° 0.1 mm 2 mps 737 mmHg 52%
    16:00 +34°C° 0.1 mm 2 mps 737 mmHg 59%
    17:00 +31°C° 0.1 mm 2 mps 737 mmHg 65%
    18:00 +29°C° 0.1 mm 2 mps 738 mmHg 72%
    19:00 +28°C° 0.1 mm 2 mps 738 mmHg 76%
    20:00 +28°C° 0.1 mm 2 mps 739 mmHg 79%
    21:00 +27°C° 0.1 mm 3 mps 739 mmHg 83%
    22:00 +27°C° 0 mm 2 mps 739 mmHg 85%
    23:00 +26°C° 0 mm 2 mps 739 mmHg 87%

    27 October, Friday

    Time Temperature Precipitation Wind Pressure Humidity
    00:00 +26°C° 0 mm 2 mps 738 mmHg 89%
    01:00 +25°C° 0 mm 2 mps 738 mmHg 90%
    02:00 +25°C° 0 mm 2 mps 738 mmHg 92%
    03:00 +25°C° 0 mm 2 mps 737 mmHg 93%
    04:00 +25°C° 0 mm 2 mps 738 mmHg 94%
    05:00 +25°C° 0 mm 1 mps 738 mmHg 95%
    06:00 +25°C° 0 mm 1 mps 739 mmHg 96%
    07:00 +27°C° 0 mm 1 mps 739 mmHg 86%
    08:00 +29°C° 0 mm 1 mps 739 mmHg 77%
    09:00 +31°C° 0 mm 2 mps 740 mmHg 67%
    10:00 +33°C° 0 mm 1 mps 739 mmHg 61%
    11:00 +34°C° 0 mm 1 mps 738 mmHg 54%
    12:00 +36°C° 0 mm 1 mps 738 mmHg 48%
    13:00 +36°C° 0 mm 1 mps 737 mmHg 47%
    14:00 +36°C° 0 mm 1 mps 737 mmHg 45%
    15:00 +36°C° 0 mm 1 mps 736 mmHg 44%
    16:00 +34°C° 0 mm 1 mps 736 mmHg 50%
    17:00 +32°C° 0 mm 2 mps 736 mmHg 56%
    18:00 +31°C° 0 mm 2 mps 737 mmHg 62%
    19:00 +30°C° 0 mm 2 mps 737 mmHg 67%
    20:00 +29°C° 0 mm 3 mps 737 mmHg 73%
    21:00 +28°C° 0 mm 3 mps 738 mmHg 78%
    22:00 +27°C° 0 mm 3 mps 738 mmHg 81%
    23:00 +27°C° 0 mm 3 mps 737 mmHg 83%
    Show more